BREEZE-M R/B, 40259

Orbit data source: Space-Track

BREEZE-M R/B, 40259 is space debris in GEO originally from a launch on Sat, 27 Sep 2014 UTC launched from the Tyuratam Missile And Space Complex (TTMTR). Debris objects in space refer to the collection of defunct objects orbiting the Earth. Examples of debris include non-operational satellites, rocket bodies, and fragments generated from explosions, collisions, or faulty payload assembly.

Loading next visibility...
Identifier
40259, 2014-058B
Orbit
GEO
Country
Flag of CISCIS
Related business
Manufacturer
Khrunichev
Mission
Spacecraft
Bus & Motor
BRIZ, Unknown motor
Mass
~1,600 kg wet, 1,600 kg dry
Launch date (UTC)
2014-09-27 (11 years ago)
Launch vehicle
Unknown
Launch site
Tyuratam Missile And Space Complex (TTMTR)
Object type
Payload
Rocket body
Debris
Shape & HBR
Cyl, 2.0 m
Radar Cross Section
15.135 m², Large (>1 m²)

Expand to show TLE details & history
Last TLE update: 13 hours ago

TLE from 13 hours ago
0 BREEZE-M R/B
1 40259U 14058B   25298.19273450 -.00000155  00000-0  00000+0 0  9996
2 40259   9.8754  61.9340 0641645 193.3723 164.8197  0.91687283 37079
Epoch: 2025-10-25T04:37Z
TLE epoch observation values (Epoch: 2025-10-25T04:37:32.260Z)
Latitude
-0.00001°
Longitude
-41.35806°
Altitude
41,167.477 km
Speed
2.804 km/s
True Right ascension
04h 07m 24s
True Declination
0° 00' 00"
Sunlit
Object was in daylight at epoch
Visualization orbit readout
Latitude
Unknown
Longitude
Unknown
Altitude
Unknown
Speed
Unknown
Apparent Right ascension
Unknown
Apparent Declination
Unknown
Sunlit
N/A
Visualization observer readout
Local Sidereal Time
12:54:22
Azimuth
Unknown
Elevation
Unknown
Doppler factor
Unknown
Orbital elements
Apogee altitude
41,251.871 km
Perigee altitude
35,508.106 km
Semi-major axis
44,758.125 km
Eccentricity
0.06416
Inclination
9.8754°
RAAN
61.934°
Arg. of periapsis
193.3723°
True anomaly
166.60609°
Mean anomaly
164.8197°
Eccentric anomaly
165.72613°
Mean motion
0.22921 °/min
Orbital period
1,570.61 mins
BSTAR
0
Loading maneuver chart data...
Computing Atmospheric mass density...
Loading historical data...
Loading historical data...
Loading historical data...
Loading historical data...
Loading historical data...
Loading historical data...
Loading historical data...
Other satellites on launch #58 in the year 2014 (2014-09-27 UTC)

Documentation

Showing up to 5 results
|